Regional Weather Roundup
Issued by NWS

Home | Current Version | Previous Version | Graphics & Text | Print | Product List | Glossary On
Versions: 1 2 3 4 5 6 7 8 9 10 11 12 13 14 15 16 17 18 19 20 21 22 23 24 25 26 27 28 29 30 31 32 33 34 35 36 37 38 39 40 41 42 43 44 45 46 47 48 49 50
000
ASUS43 KBIS 211410
RWRND
NORTH DAKOTA REGIONAL WEATHER ROUNDUP
NATIONAL WEATHER SERVICE EASTERN NORTH DAKOTA/GRAND FORKS ND
900 AM CDT SAT APR 21 2018

  NOTE: "FAIR" INDICATES FEW OR NO CLOUDS BELOW 12,000 FEET WITH NO
  SIGNIFICANT WEATHER AND/OR OBSTRUCTIONS TO VISIBILITY.

NDZ001>003-009>011-017-211500-
...NORTHWEST NORTH DAKOTA...

CITY           SKY/WX    TMP DP  RH WIND       PRES   REMARKS
WILLISTON      FAIR      43  37  79 S9        30.13F
MINOT          FAIR      45  37  73 S18G24    30.20F
MINOT AFB      NOT AVBL
$$

NDZ018>021-031>035-040>046-211500-
...SOUTHWEST NORTH DAKOTA...

CITY           SKY/WX    TMP DP  RH WIND       PRES   REMARKS
BISMARCK       FAIR      45  41  86 E6        30.28S
DICKINSON      CLOUDY    41  37  86 S21       30.16S
GARRISON         N/A     40  37  89 S13       30.21F WCI  32
HETTINGER      CLOUDY    41  37  86 S13       30.22S
$$

NDZ004>008-012>016-024-026-027-054-211500-
...NORTHEAST NORTH DAKOTA...

CITY           SKY/WX    TMP DP  RH WIND       PRES   REMARKS
GRAND FORKS    CLOUDY    36  36 100 S9        30.35S WCI  29
GRAND FORKS AF CLOUDY    38  38  99 S9        30.34S WCI  32
DEVILS LAKE    CLOUDY    42  37  82 S7        30.31F
$$

NDZ022-023-025-028>030-036>039-047>053-211500-
...SOUTHEAST NORTH DAKOTA...

CITY           SKY/WX    TMP DP  RH WIND       PRES   REMARKS
JAMESTOWN      FAIR      44  39  82 S9        30.33S
FARGO          CLOUDY    40  35  83 S7        30.39R
WAHPETON       FAIR      37  32  81 SE6       30.39F WCI  33
$$




USA.gov is the U.S. government's official web portal to all federal, state and local government web resources and services.